SCP
-0 -0 0 0 0 0 0 0 0 0 -0 -0 -0 -0 -0 -0 -0 -0 -0 -0 -0 -0 -0 0 0 -0 -0 -0 -0 0 0 0 0 0 0 0 0 0 0 0 0 0 0
-0 0 0 0 0 0 0 0 0 0 0 0 -0 -0 -0 -0 -0 -0 -0 -0 -0 -0 -0 0 0 -0 -0 -0 -0 -0 0 0 0 -0 -0 0 0 0 0 0 0 0 0
-0 0 0 0 0 0 0 0 0 0 0 0 0 -0 -0 -0 -0 -0 -0 -0 -0 -0 -0 0 0 0 0 0 0 0 0 0 0 -0 -0 0 0 0 0 0 0 0 0
-0 0 0 0 0 0 0 0 0 0 0 0 0 0 0 0 0 -0 0 -0 -0 -0 -0 0 0 0 0 0 0 0 0 0 0 0 0 0 0 0 0 0 0 0 0
-0 0 0 0 -0 0 0 0 0 0 0 0 0 0 0 0 0 0 0 0 0 0 0 0 0 0 0 0 0 0 0 0 -0 0 0 0 0 0 0 0 0 0 0
-0 0 0 -0 -0 -0 0 0 0 0 0 0 0 0 0 0 0 0 0 0 0 0 0 0 0 0 0 0 0 0 0 0 -0 0 0 0 0 0 -0 0 0 0 0
0 0 0 0 0 0 0 0 0 0 0 0 0 0 0 0 0 0 0 0 0 0 0 0 0 0 0 0 0 0 0 0 0 0 0 0 0 0 0 0 0 0 0
0 0 -0 -0 -0 -0 -0 -0 -0 0 0 0 0 -0 0 0 0 0 0 0 0 0 0 0 0 0 0 0 0 0 0 0 0 0 0 0 0 0 0 0 0 0 0
0 0 0 -0 -0 -0 0 -0 0 0 0 0 0 0 0 0 0 0 0 0 0 0 0 0 0 0 0 0 0 0 0 0 0 0 0 0 0 0 0 0 0 0 0
0 0 0 -0 -0 -0 -0 0 0 0 0 0 0 0 0 0 0 0 0 0 0 0 0 0 0 0 0 0 0 0 0 0 0 0 0 0 0 0 0 0 0 0 0
0 0 0 0 0 0 0 0 0 0 0 0 0 0 0 0 0 0 0 0 0 0 0 0 0 0 0 0 0 0 0 0 0 0 0 0 0 0 0 0 0 0 0
0 0 0 0 0 0 0 0 0 0 0 0 0 0 0 0 0 0 0 0 0 0 0 0 0 0 0 0 0 0 0 0 0 0 0 0 0 0 0 0 0 0 0
0 0 0 0 0 0 0 0 0 0 0 0 0 0 0 0 0 0 0 0 0 0 0 0 0 0 0 0 0 0 0 0 0 0 0 0 0 0 0 0 0 0 0
0 0 0 0 0 0 0 0 0 0 0 0 0 0 0 0 0 0 0 0 0 0 0 0 0 0 0 0 0 0 0 0 0 0 0 0 0 0 0 0 0 0 0
0 0 0 0 0 0 0 0 0 0 0 0 0 0 0 0 0 0 0 0 0 0 0 0 0 0 0 0 0 0 0 0 0 0 0 0 0 0 0 0 0 0 0
0 0 0 0 0 0 0 0 0 0 0 0 0 0 0 0 0 0 0 0 0 0 0 0 0 0 0 0 0 0 0 0 0 0 0 0 0 0 0 0 0 0 0
0 0 0 0 0 0 0 0 0 0 0 0 0 0 0 0 0 0 0 0 0 0 0 0 0 0 0 0 0 0 0 0 0 0 0 0 0 0 0 0 0 0 0
0 0 0 0 0 0 0 0 0 0 0 0 0 0 0 0 0 0 0 0 0 0 0 0 0 0 0 0 0 0 0 0 0 0 0 0 0 0 0 0 0 0 0
0 0 0 0 0 0 0 0 0 0 0 0 0 0 0 0 0 0 0 0 0 0 0 0 0 0 0 0 0 0 0 0 0 0 0 0 0 0 0 0 0 0 0
0 0 0 0 0 0 0 0 0 0 0 0 0 0 0 0 0 0 0 0 0 0 0 0 0 0 0 0 0 0 0 0 0 0 0 0 0 0 0 0 0 0 0
0 0 0 0 0 0 0 0 0 0 0 0 0 0 0 0 0 0 0 0 0 0 0 0 0 0 0 0 0 0 0 0 0 0 0 0 0 0 0 0 0 0 0
0 0 0 0 0 0 0 0 0 0 0 0 0 0 0 0 0 0 0 0 0 0 0 0 0 0 0 0 0 0 0 0 0 0 0 0 0 0 0 0 0 0 0
0 0 0 0 0 0 0 0 0 0 0 0 0 0 0 0 0 0 0 0 0 0 0 0 0 0 0 0 0 0 0 0 0 0 0 0 0 0 0 0 0 0 0
0 0 0 0 0 0 0 0 0 0 0 0 0 0 0 0 0 0 0 0 0 0 0 0 0 0 0 0 0 0 0 0 0 0 0 0 0 0 0 0 0 0 0
0 0 0 0 0 0 0 0 0 0 0 0 0 0 0 0 0 0 0 0 0 0 0 0 0 0 0 0 0 0 0 0 0 0 0 0 0 0 0 0 0 0 0
0 0 0 0 0 0 0 0 0 0 0 0 0 0 0 0 0 0 0 0 0 0 0 0 0 0 0 0 0 0 0 0 0 0 0 0 0 0 0 0 0 0 0
Wind_Speed_500mb
20 18 16 15 14 18 24 20 18 19 20 21 16 12 9 6 6 7 7 5 5 7 12 13 10 14 16 17 19 22 23 23 21 20 20 17 16 18 21 24 25 11 11
23 21 18 14 13 17 22 18 16 16 14 11 6 3 1 3 4 5 6 5 4 4 11 8 8 12 14 16 19 21 22 22 22 21 22 27 15 13 13 14 11 9 4
25 21 19 16 15 16 18 16 14 13 11 8 7 7 6 6 8 10 11 12 15 12 8 9 7 7 11 13 15 18 19 20 20 22 27 10 16 10 7 3 2 3 3
25 21 18 20 17 17 16 15 13 13 14 12 8 6 7 13 16 19 11 6 12 9 8 7 6 7 8 10 12 14 15 16 16 17 12 8 8 12 10 10 7 6 6
24 18 17 22 19 19 18 17 15 16 17 13 5 5 12 14 14 8 3 8 10 11 10 12 9 9 6 7 10 12 13 13 13 17 10 8 8 14 9 10 12 10 8
23 18 17 19 18 18 18 17 16 15 12 8 6 6 8 7 7 8 7 9 11 11 11 13 5 9 8 9 11 12 13 13 13 10 10 11 10 11 13 13 10 12 13
22 17 16 14 14 14 15 13 13 12 10 8 7 6 8 2 4 6 6 7 9 11 7 3 4 7 11 14 15 15 14 13 12 11 11 12 13 14 14 13 16 13 14
23 17 12 12 12 11 10 9 9 8 7 6 5 5 6 3 5 3 5 5 5 6 6 6 5 7 11 13 14 15 16 16 13 13 13 12 13 16 15 14 13 17 22
23 19 13 8 9 9 7 6 4 3 3 2 2 2 4 4 8 9 8 8 8 7 7 8 9 11 13 15 17 18 17 16 14 13 13 9 18 18 17 16 18 20 20
23 20 17 13 8 4 3 2 1 2 2 2 3 4 6 8 10 11 12 11 11 12 11 11 12 14 17 19 20 20 18 15 13 14 12 16 19 19 19 20 21 22 23
22 21 19 15 11 11 6 1 3 3 4 5 7 7 8 8 14 14 15 17 16 16 15 15 17 17 20 20 22 23 20 12 12 10 11 21 22 21 21 22 25 25 25
22 20 18 16 13 11 6 3 3 8 5 6 6 11 7 10 11 15 19 18 17 16 17 18 19 19 20 14 18 21 18 12 11 11 13 24 20 20 21 23 26 29 31
20 19 18 16 13 10 8 5 4 5 4 5 5 5 3 5 8 11 9 13 12 18 12 18 21 22 21 23 21 20 18 16 13 18 19 21 22 23 25 27 26 32 37
23 20 18 16 14 12 10 9 9 10 10 9 12 11 11 9 12 15 21 14 19 14 17 19 22 24 25 25 25 22 14 19 19 21 21 24 26 29 29 31 35 39 35
27 23 20 18 14 12 14 13 13 15 17 15 16 16 15 15 16 20 20 26 23 24 20 23 24 26 27 27 29 28 25 25 26 23 23 26 30 30 30 34 36 38 36
27 25 24 20 17 16 17 17 16 15 15 19 21 21 24 22 25 28 28 31 30 24 25 25 30 31 32 32 33 34 33 32 31 27 25 26 29 34 34 32 39 36 25
27 30 26 22 18 17 18 18 17 17 18 15 23 27 28 31 33 34 34 34 33 30 33 34 33 32 29 25 28 24 27 28 28 25 28 30 31 37 34 33 32 26 14
30 34 32 27 25 22 22 22 22 23 21 25 25 29 31 36 36 38 39 40 35 34 34 33 27 25 29 23 22 23 29 28 27 26 30 26 30 34 32 31 25 19 22
37 37 35 32 29 26 26 27 26 25 26 29 32 34 36 37 37 40 41 43 40 39 36 34 35 32 33 31 30 28 28 25 24 27 27 33 33 34 30 23 17 22 26
40 38 36 34 30 27 28 27 27 27 30 33 36 38 37 36 33 31 31 30 28 28 31 30 32 31 32 29 25 28 23 7 4 8 11 26 23 22 18 16 18 22 28
39 38 36 33 31 29 26 21 22 21 31 35 35 32 26 21 18 15 15 17 19 23 28 30 31 30 25 37 38 11 16 21 11 1 5 17 12 12 15 19 19 19 22
39 37 35 32 29 27 24 24 23 27 28 29 25 17 11 6 6 11 15 18 23 24 28 29 30 32 34 40 23 18 14 10 10 5 6 8 11 13 15 16 16 16 19
35 34 33 31 28 23 22 24 25 24 20 14 6 2 3 7 11 15 18 21 25 30 33 32 32 28 19 20 14 11 7 3 5 12 9 12 13 15 16 14 14 14 14
36 35 32 28 23 20 20 21 18 12 11 8 6 6 8 12 16 20 23 25 26 24 23 21 20 18 15 15 12 12 17 20 5 8 12 15 14 16 15 17 16 15 16
37 36 31 24 19 18 20 20 18 14 9 8 8 10 13 17 19 21 22 23 22 20 19 18 17 17 14 13 12 11 11 11 12 8 9 9 16 20 20 19 16 15 17
36 33 27 20 18 20 19 16 14 11 9 8 9 12 15 18 20 20 20 20 20 20 19 19 18 16 13 12 12 11 10 10 16 9 8 9 12 23 23 18 16 17 18
Wind_Direction_500mb
154 151 122 105 92 106 127 126 124 120 118 114 111 102 92 75 52 42 34 40 82 93 75 80 66 50 35 28 35 43 51 56 59 58 60 60 81 83 88 91 82 106 106
150 147 129 128 104 108 132 138 138 143 140 137 139 137 41 349 359 13 14 2 28 81 71 43 41 35 35 40 43 44 47 50 53 59 60 36 53 86 95 105 101 105 135
142 160 141 127 106 104 128 141 142 146 147 142 124 100 62 46 77 87 61 62 60 59 91 72 60 55 43 44 40 39 39 42 50 63 69 59 2 48 73 66 15 17 5
141 139 150 129 115 106 111 125 132 135 126 127 111 72 67 86 83 90 95 50 18 31 70 92 61 53 41 42 33 31 31 32 38 54 51 49 35 3 18 20 10 2 355
140 157 159 132 123 117 109 112 120 132 129 158 126 98 96 89 101 107 44 8 25 52 78 56 54 31 32 21 11 11 10 17 24 39 25 6 53 324 350 10 10 3 345
143 158 156 137 133 122 115 113 119 128 141 148 137 130 100 57 54 52 46 48 51 58 89 95 89 15 11 352 347 344 352 1 12 354 357 349 2 334 339 339 352 357 354
151 175 160 149 142 127 121 118 114 118 133 143 142 131 132 132 339 2 26 35 39 45 66 102 247 285 317 325 330 337 347 351 355 349 346 336 313 326 325 327 323 331 340
157 159 174 166 156 148 132 123 118 112 110 130 155 169 163 159 207 329 343 346 353 10 20 16 358 324 324 330 330 332 339 344 360 330 332 334 334 331 323 322 317 320 315
160 158 172 172 172 167 166 151 137 123 112 99 158 241 195 253 285 308 311 312 314 319 312 320 320 320 323 326 325 322 327 335 343 321 336 334 322 328 333 328 325 319 310
164 162 163 182 189 192 182 194 234 251 262 284 298 291 289 286 290 297 301 296 301 308 308 303 304 309 312 316 320 321 318 324 350 324 331 299 320 323 325 326 325 323 321
169 167 167 168 166 178 198 333 343 327 286 289 291 293 299 322 299 307 297 301 300 296 295 298 305 310 313 322 324 324 326 -0 308 312 317 296 325 329 333 339 338 334 329
179 178 176 171 168 171 179 249 6 322 345 346 316 299 318 266 273 290 295 299 302 306 302 304 306 309 321 321 311 322 337 303 308 292 305 309 328 338 335 330 324 321 318
188 185 181 181 186 186 205 199 258 248 236 257 278 290 326 318 316 322 286 308 325 315 336 308 312 318 322 325 306 299 288 303 307 306 299 327 332 333 327 333 325 315 309
187 190 190 191 199 211 213 251 243 255 258 264 274 282 278 300 300 331 329 324 311 299 307 293 296 309 315 317 318 324 316 292 295 304 307 308 308 310 312 317 315 316 319
186 188 192 198 209 227 246 240 245 245 264 259 256 265 280 284 288 298 304 307 310 330 317 314 312 308 305 302 298 292 284 283 287 292 294 297 301 304 305 308 310 315 314
186 192 209 220 229 234 244 243 238 244 250 258 261 268 277 280 283 279 282 282 285 283 296 300 297 296 296 293 292 294 293 291 291 291 297 297 298 301 303 306 306 305 308
202 214 220 228 232 248 255 257 251 253 255 255 253 264 255 261 266 272 277 278 278 279 288 290 292 294 299 308 312 313 304 301 298 292 298 296 294 296 299 302 295 295 280
207 218 228 227 230 238 246 250 254 258 260 268 277 276 274 264 266 269 272 275 282 289 292 292 295 293 299 312 306 304 300 297 293 303 305 294 292 294 298 290 291 274 259
212 221 226 229 236 240 246 255 262 267 270 274 276 276 276 274 271 270 273 276 280 284 287 289 297 297 294 293 289 304 302 290 294 298 299 290 282 282 284 285 268 268 271
219 222 228 233 237 243 250 260 268 272 272 273 276 278 279 277 276 277 278 281 283 275 280 291 299 299 299 300 308 315 292 322 337 299 259 273 268 269 274 272 271 277 284
224 226 229 232 236 242 248 262 272 268 276 277 280 280 277 276 280 287 294 294 293 290 292 296 295 299 307 296 304 311 279 291 298 226 228 277 268 262 271 276 281 289 293
225 228 229 230 233 239 251 261 258 263 271 281 283 281 277 278 299 306 300 299 300 298 297 296 298 296 294 295 295 281 238 263 299 269 225 268 273 271 271 281 291 300 308
224 226 226 226 230 244 255 256 254 258 265 271 270 307 308 303 305 305 298 296 298 296 290 291 295 296 291 296 289 236 256 252 240 277 286 292 288 280 286 295 308 316 319
217 216 216 220 230 242 246 243 238 233 240 244 251 274 292 297 300 300 303 304 306 308 306 304 299 297 289 280 290 267 252 253 242 262 272 275 277 284 291 302 305 309 317
215 214 214 219 227 236 234 229 219 224 235 244 263 280 294 301 307 311 312 312 310 310 309 305 302 298 295 288 280 274 261 277 278 251 258 265 301 285 296 293 297 306 316
205 207 209 209 216 221 221 214 214 219 235 259 280 291 296 303 308 312 314 316 316 313 310 307 304 300 294 285 280 276 272 249 267 254 241 234 237 271 294 293 293 303 322
Wind_Speed_850mb
20 18 16 15 14 18 24 20 18 19 20 21 16 12 9 6 6 7 7 5 5 7 12 13 10 14 16 17 19 22 23 23 21 20 20 17 16 18 21 24 25 11 11
23 21 18 14 13 17 22 18 16 16 14 11 6 3 1 3 4 5 6 5 4 4 11 8 8 12 14 16 19 21 22 22 22 21 22 27 15 13 13 14 11 9 4
25 21 19 16 15 16 18 16 14 13 11 8 7 7 6 6 8 10 11 12 15 12 8 9 7 7 11 13 15 18 19 20 20 22 27 10 16 10 7 3 2 3 3
25 21 18 20 17 17 16 15 13 13 14 12 8 6 7 13 16 19 11 6 12 9 8 7 6 7 8 10 12 14 15 16 16 17 12 8 8 12 10 10 7 6 6
24 18 17 22 19 19 18 17 15 16 17 13 5 5 12 14 14 8 3 8 10 11 10 12 9 9 6 7 10 12 13 13 13 17 10 8 8 14 9 10 12 10 8
23 18 17 19 18 18 18 17 16 15 12 8 6 6 8 7 7 8 7 9 11 11 11 13 5 9 8 9 11 12 13 13 13 10 10 11 10 11 13 13 10 12 13
22 17 16 14 14 14 15 13 13 12 10 8 7 6 8 2 4 6 6 7 9 11 7 3 4 7 11 14 15 15 14 13 12 11 11 12 13 14 14 13 16 13 14
23 17 12 12 12 11 10 9 9 8 7 6 5 5 6 3 5 3 5 5 5 6 6 6 5 7 11 13 14 15 16 16 13 13 13 12 13 16 15 14 13 17 22
23 19 13 8 9 9 7 6 4 3 3 2 2 2 4 4 8 9 8 8 8 7 7 8 9 11 13 15 17 18 17 16 14 13 13 9 18 18 17 16 18 20 20
23 20 17 13 8 4 3 2 1 2 2 2 3 4 6 8 10 11 12 11 11 12 11 11 12 14 17 19 20 20 18 15 13 14 12 16 19 19 19 20 21 22 23
22 21 19 15 11 11 6 1 3 3 4 5 7 7 8 8 14 14 15 17 16 16 15 15 17 17 20 20 22 23 20 12 12 10 11 21 22 21 21 22 25 25 25
22 20 18 16 13 11 6 3 3 8 5 6 6 11 7 10 11 15 19 18 17 16 17 18 19 19 20 14 18 21 18 12 11 11 13 24 20 20 21 23 26 29 31
20 19 18 16 13 10 8 5 4 5 4 5 5 5 3 5 8 11 9 13 12 18 12 18 21 22 21 23 21 20 18 16 13 18 19 21 22 23 25 27 26 32 37
23 20 18 16 14 12 10 9 9 10 10 9 12 11 11 9 12 15 21 14 19 14 17 19 22 24 25 25 25 22 14 19 19 21 21 24 26 29 29 31 35 39 35
27 23 20 18 14 12 14 13 13 15 17 15 16 16 15 15 16 20 20 26 23 24 20 23 24 26 27 27 29 28 25 25 26 23 23 26 30 30 30 34 36 38 36
27 25 24 20 17 16 17 17 16 15 15 19 21 21 24 22 25 28 28 31 30 24 25 25 30 31 32 32 33 34 33 32 31 27 25 26 29 34 34 32 39 36 25
27 30 26 22 18 17 18 18 17 17 18 15 23 27 28 31 33 34 34 34 33 30 33 34 33 32 29 25 28 24 27 28 28 25 28 30 31 37 34 33 32 26 14
30 34 32 27 25 22 22 22 22 23 21 25 25 29 31 36 36 38 39 40 35 34 34 33 27 25 29 23 22 23 29 28 27 26 30 26 30 34 32 31 25 19 22
37 37 35 32 29 26 26 27 26 25 26 29 32 34 36 37 37 40 41 43 40 39 36 34 35 32 33 31 30 28 28 25 24 27 27 33 33 34 30 23 17 22 26
40 38 36 34 30 27 28 27 27 27 30 33 36 38 37 36 33 31 31 30 28 28 31 30 32 31 32 29 25 28 23 7 4 8 11 26 23 22 18 16 18 22 28
39 38 36 33 31 29 26 21 22 21 31 35 35 32 26 21 18 15 15 17 19 23 28 30 31 30 25 37 38 11 16 21 11 1 5 17 12 12 15 19 19 19 22
39 37 35 32 29 27 24 24 23 27 28 29 25 17 11 6 6 11 15 18 23 24 28 29 30 32 34 40 23 18 14 10 10 5 6 8 11 13 15 16 16 16 19
35 34 33 31 28 23 22 24 25 24 20 14 6 2 3 7 11 15 18 21 25 30 33 32 32 28 19 20 14 11 7 3 5 12 9 12 13 15 16 14 14 14 14
36 35 32 28 23 20 20 21 18 12 11 8 6 6 8 12 16 20 23 25 26 24 23 21 20 18 15 15 12 12 17 20 5 8 12 15 14 16 15 17 16 15 16
37 36 31 24 19 18 20 20 18 14 9 8 8 10 13 17 19 21 22 23 22 20 19 18 17 17 14 13 12 11 11 11 12 8 9 9 16 20 20 19 16 15 17
36 33 27 20 18 20 19 16 14 11 9 8 9 12 15 18 20 20 20 20 20 20 19 19 18 16 13 12 12 11 10 10 16 9 8 9 12 23 23 18 16 17 18
Wind_Direction_850mb
154 151 122 105 92 106 127 126 124 120 118 114 111 102 92 75 52 42 34 40 82 93 75 80 66 50 35 28 35 43 51 56 59 58 60 60 81 83 88 91 82 106 106
150 147 129 128 104 108 132 138 138 143 140 137 139 137 41 349 359 13 14 2 28 81 71 43 41 35 35 40 43 44 47 50 53 59 60 36 53 86 95 105 101 105 135
142 160 141 127 106 104 128 141 142 146 147 142 124 100 62 46 77 87 61 62 60 59 91 72 60 55 43 44 40 39 39 42 50 63 69 59 2 48 73 66 15 17 5
141 139 150 129 115 106 111 125 132 135 126 127 111 72 67 86 83 90 95 50 18 31 70 92 61 53 41 42 33 31 31 32 38 54 51 49 35 3 18 20 10 2 355
140 157 159 132 123 117 109 112 120 132 129 158 126 98 96 89 101 107 44 8 25 52 78 56 54 31 32 21 11 11 10 17 24 39 25 6 53 324 350 10 10 3 345
143 158 156 137 133 122 115 113 119 128 141 148 137 130 100 57 54 52 46 48 51 58 89 95 89 15 11 352 347 344 352 1 12 354 357 349 2 334 339 339 352 357 354
151 175 160 149 142 127 121 118 114 118 133 143 142 131 132 132 339 2 26 35 39 45 66 102 247 285 317 325 330 337 347 351 355 349 346 336 313 326 325 327 323 331 340
157 159 174 166 156 148 132 123 118 112 110 130 155 169 163 159 207 329 343 346 353 10 20 16 358 324 324 330 330 332 339 344 360 330 332 334 334 331 323 322 317 320 315
160 158 172 172 172 167 166 151 137 123 112 99 158 241 195 253 285 308 311 312 314 319 312 320 320 320 323 326 325 322 327 335 343 321 336 334 322 328 333 328 325 319 310
164 162 163 182 189 192 182 194 234 251 262 284 298 291 289 286 290 297 301 296 301 308 308 303 304 309 312 316 320 321 318 324 350 324 331 299 320 323 325 326 325 323 321
169 167 167 168 166 178 198 333 343 327 286 289 291 293 299 322 299 307 297 301 300 296 295 298 305 310 313 322 324 324 326 -0 308 312 317 296 325 329 333 339 338 334 329
179 178 176 171 168 171 179 249 6 322 345 346 316 299 318 266 273 290 295 299 302 306 302 304 306 309 321 321 311 322 337 303 308 292 305 309 328 338 335 330 324 321 318
188 185 181 181 186 186 205 199 258 248 236 257 278 290 326 318 316 322 286 308 325 315 336 308 312 318 322 325 306 299 288 303 307 306 299 327 332 333 327 333 325 315 309
187 190 190 191 199 211 213 251 243 255 258 264 274 282 278 300 300 331 329 324 311 299 307 293 296 309 315 317 318 324 316 292 295 304 307 308 308 310 312 317 315 316 319
186 188 192 198 209 227 246 240 245 245 264 259 256 265 280 284 288 298 304 307 310 330 317 314 312 308 305 302 298 292 284 283 287 292 294 297 301 304 305 308 310 315 314
186 192 209 220 229 234 244 243 238 244 250 258 261 268 277 280 283 279 282 282 285 283 296 300 297 296 296 293 292 294 293 291 291 291 297 297 298 301 303 306 306 305 308
202 214 220 228 232 248 255 257 251 253 255 255 253 264 255 261 266 272 277 278 278 279 288 290 292 294 299 308 312 313 304 301 298 292 298 296 294 296 299 302 295 295 280
207 218 228 227 230 238 246 250 254 258 260 268 277 276 274 264 266 269 272 275 282 289 292 292 295 293 299 312 306 304 300 297 293 303 305 294 292 294 298 290 291 274 259
212 221 226 229 236 240 246 255 262 267 270 274 276 276 276 274 271 270 273 276 280 284 287 289 297 297 294 293 289 304 302 290 294 298 299 290 282 282 284 285 268 268 271
219 222 228 233 237 243 250 260 268 272 272 273 276 278 279 277 276 277 278 281 283 275 280 291 299 299 299 300 308 315 292 322 337 299 259 273 268 269 274 272 271 277 284
224 226 229 232 236 242 248 262 272 268 276 277 280 280 277 276 280 287 294 294 293 290 292 296 295 299 307 296 304 311 279 291 298 226 228 277 268 262 271 276 281 289 293
225 228 229 230 233 239 251 261 258 263 271 281 283 281 277 278 299 306 300 299 300 298 297 296 298 296 294 295 295 281 238 263 299 269 225 268 273 271 271 281 291 300 308
224 226 226 226 230 244 255 256 254 258 265 271 270 307 308 303 305 305 298 296 298 296 290 291 295 296 291 296 289 236 256 252 240 277 286 292 288 280 286 295 308 316 319
217 216 216 220 230 242 246 243 238 233 240 244 251 274 292 297 300 300 303 304 306 308 306 304 299 297 289 280 290 267 252 253 242 262 272 275 277 284 291 302 305 309 317
215 214 214 219 227 236 234 229 219 224 235 244 263 280 294 301 307 311 312 312 310 310 309 305 302 298 295 288 280 274 261 277 278 251 258 265 301 285 296 293 297 306 316
205 207 209 209 216 221 221 214 214 219 235 259 280 291 296 303 308 312 314 316 316 313 310 307 304 300 294 285 280 276 272 249 267 254 241 234 237 271 294 293 293 303 322